Regional Weather Roundup
Issued by NWS

Home | Current Version | Previous Version | Text Only | Print | Product List | Glossary Off
Versions: 1 2 3 4 5 6 7 8 9 10 11 12 13 14 15 16 17 18 19 20 21 22 23 24 25 26 27 28 29 30 31 32 33 34 35 36 37 38 39 40 41 42 43 44 45 46 47 48 49 50

000
ASUS45 KCYS 281410
RWRWY

WYOMING REGIONAL WEATHER ROUNDUP
NATIONAL WEATHER SERVICE CHEYENNE WY
800 AM MDT THU AUG 28 2014

NOTE:  "FAIR" INDICATES FEW OR NO CLOUDS BELOW 12,000 FEET
WITH NO SIGNIFICANT WEATHER AND/OR OBSTRUCTIONS TO VISIBILITY.

WYZ001-281500-
YELLOWSTONE NATIONAL PARK

CITY           SKY/WX    TMP DP  RH WIND       PRES   REMARKS
LK YELLOWSTONE   N/A     41  38  89 CALM      30.40S
W YELLOWSTONE  NOT AVBL

$$
WYZ002>013-054>058-071-098>099-281500-
NORTHERN WYOMING

CITY           SKY/WX    TMP DP  RH WIND       PRES   REMARKS
JACKSON        SUNNY     43  43 100 CALM      30.33R
CODY           SUNNY     63  45  51 CALM      30.16R
GREYBULL       SUNNY     56  51  84 CALM      30.11S
WORLAND        SUNNY     57  53  86 S3        30.12S
SHERIDAN       SUNNY     62  49  62 CALM      30.06S
BUFFALO        SUNNY     67  45  45 W9        30.12S
GILLETTE       MOSUNNY   63  52  67 CALM      30.06S
HULETT         FAIR      59  55  88 MISG      30.07
NEWCASTLE      FAIR      61  55  82 NW5       30.06

$$
WYZ014>020-022>026-101>103-281500-
CENTRAL WYOMING

CITY           SKY/WX    TMP DP  RH WIND       PRES   REMARKS
BIG PINEY      SUNNY     47  45  93 CALM      30.33S
PINEDALE       SUNNY     43  43 100 NW3       30.34S
DUBOIS         FAIR      46  37  71 NW12      30.32R
LANDER         SUNNY     55  51  86 CALM      30.20S
RIVERTON       SUNNY     56  47  71 VRB3      30.20S
CASPER         PTSUNNY   58  51  78 SW8       30.16R
DOUGLAS        CLOUDY    59  54  83 NW9       30.13R

$$
WYZ021-027>030-104>119-281500-
SOUTHERN WYOMING

CITY           SKY/WX    TMP DP  RH WIND       PRES   REMARKS
EVANSTON       CLOUDY    48  46  93 S7        30.37R
KEMMERER       SUNNY     50  45  81 NW6       30.36S
FORT BRIDGER   PTSUNNY   55  47  76 W13       30.38R
ROCK SPRINGS   MOSUNNY   50  47  89 W8        30.31R
DIXON          LGT RAIN  52  50  92 W3        30.32S
RAWLINS        CLOUDY    51  48  89 W9        30.26R
SARATOGA       RAIN      50  48  93 CALM      30.30R
LARAMIE        LGT RAIN  46  44  93 E5        30.25R FOG
CHEYENNE       PTSUNNY   53  45  74 W8        30.17R
TORRINGTON     LGT RAIN  60  59  96 W10       30.07R
PINE BLUFFS    PTSUNNY   57  50  77 NW13      30.12S

$$


USA.gov is the U.S. government's official web portal to all federal, state and local government web resources and services.